Location: Blavincourt
(50.2785°N, 2.4793°E)
Time: 09:13:21
(UTC+00:00)

Daily predictions for brighter satellites

Satellite Brightness Start Highest point End
(mag) Time Altitude Azimuth Time Altitude Azimuth Time Altitude Azimuth
Cosmos 1470 Rocket 4.2 20:09:46 10° N 20:13:53 39° ENE 20:17:57 10° SE
BREEZE-M DEB (TANK) 3.6 20:10:47 10° SW 20:13:58 60° SSE 20:23:38 10° ENE
Landsat 7 4.3 20:11:18 10° S 20:15:58 62° WSW 20:20:41 10° NNW
Cosmos 44 3.4 20:12:19 10° NW 20:16:36 58° SW 20:20:50 10° SSE
Cosmos 1315 Rocket 2.9 20:16:53 10° N 20:21:00 84° ENE 20:25:04 10° SSE
Cosmos 1814 Rocket 4.4 20:18:52 10° NNW 20:23:57 61° WSW 20:28:59 10° S
Meteor 1-11 Rocket 4.0 20:19:19 10° N 20:25:16 63° ENE 20:31:11 10° SSE
Sich 1 4.2 20:21:05 10° NNW 20:25:17 44° W 20:29:25 10° SSW
Cosmos 1697 Rocket 3.5 20:21:32 10° SSE 20:26:23 30° ESE 20:31:15 10° NE
Cosmos 2297 Rocket 2.3 20:21:59 10° NNW 20:27:40 82° WSW 20:33:19 10° SSE
Spot 2 Rocket 4.1 20:23:26 10° SE 20:28:09 42° ENE 20:32:53 10° N
Cosmos 1515 Rocket 4.3 20:27:41 10° SSE 20:31:37 34° E 20:35:36 10° NNE
BREEZE-M DEB (TANK) 2.1 20:31:24 10° WSW 20:34:16 45° SSE 20:36:22 10° E
USA 245 4.5 20:33:37 10° SSE 20:39:10 74° ENE 20:45:29 10° N
ARIANE 5 R/B 3.9 20:36:29 10° ESE 20:40:17 28° ENE 20:44:09 10° N
SPOT 1/Viking Rocket 3.9 20:37:29 10° S 20:42:38 66° WSW 20:47:48 10° NNW
ATLAS 2AS CENTAUR R/B 4.1 20:40:56 10° SSE 20:46:14 20° ESE 20:51:27 10° ENE
CARTOSAT-1 3.6 20:42:27 10° SSE 20:46:47 89° ENE 20:51:08 10° NNW
NOSS 3-4 (A) 3.6 20:44:35 10° SSW 20:49:59 46° ESE 20:55:49 10° NE
NOSS 3-4 (C) 3.6 20:44:40 10° SSW 20:50:04 45° ESE 20:55:55 10° NE
ATLAS CENTAUR R/B 4.4 20:50:21 10° NNW 20:53:14 15° N 20:56:07 10° NE
IRAS Rocket 4.5 20:47:43 10° NNE 20:53:21 77° WNW 20:58:58 10° SSW
Aureole 1 Rocket 3.2 20:52:59 11° SSE 20:55:48 29° ESE 20:58:29 10° NE
Cosmos 2219 3.3 20:53:07 10° NNW 20:58:47 77° WSW 21:03:54 13° SSE
Cosmos 921 Rocket 3.6 20:55:29 10° NNW 20:59:53 48° ENE 21:03:26 15° SE
RESURS DK-1 4.5 21:00:59 10° ESE 21:01:28 10° E 21:02:17 10° E
CZ-4B R/B 3.2 20:58:50 10° N 21:01:47 32° WNW 21:04:41 10° SW
Cosmos 482 Debris 4.0 20:59:42 10° WNW 21:02:25 70° NNE 21:06:38 10° E
USA 267 3.9 20:56:19 10° E 21:02:42 56° NNE 21:09:03 10° WNW
H-2A R/B 4.0 20:59:51 10° N 21:03:28 30° WNW 21:07:04 10° SW
Cosmos 1536 2.9 21:02:59 10° NNW 21:07:00 75° W 21:10:43 12° S
Cosmos 389 Rocket 2.4 21:03:49 10° N 21:07:19 84° ENE 21:10:02 16° SSE
SPOT 5 3.1 21:03:09 12° SSE 21:08:04 83° ENE 21:13:18 10° NNW
Cosmos 2082 3.8 21:03:32 10° NNW 21:09:12 73° ENE 21:13:46 16° SE
Cosmos 2034 Rocket 4.2 21:05:04 10° SSE 21:11:10 57° E 21:17:22 10° NNE
Cosmos 1184 Rocket 2.8 21:09:25 16° S 21:11:34 51° E 21:14:33 10° NNE
Helios 1A Rocket 3.1 21:08:57 13° S 21:12:33 70° WSW 21:16:34 10° NNW
Cosmos 1328 Rocket 4.4 21:10:49 10° SSW 21:15:00 49° WNW 21:19:14 10° N
Cosmos 2292 Rocket 4.1 21:12:33 10° N 21:15:30 27° ENE 21:16:59 18° ESE
Cosmos 405 4.2 21:12:41 10° NNW 21:15:50 35° W 21:18:58 10° SSW
Okean 1 3.8 21:14:48 17° SSE 21:17:30 42° E 21:21:20 10° NNE
Cosmos 968 Rocket 4.0 21:12:26 10° SW 21:17:32 62° WNW 21:22:39 10° NNE
Cosmos 1515 3.8 21:13:58 10° SSW 21:17:45 78° W 21:21:33 10° N
ERS-1 Rocket 3.0 21:13:55 14° SSE 21:18:11 89° ENE 21:23:16 10° NNW
ATLAS 3B R/B 3.8 21:13:56 10° NW 21:20:49 44° NNE 21:27:59 10° ESE
Geosat 4.1 21:17:27 17° SE 21:21:22 72° NE 21:26:24 10° NNW
Meteor 1-19 Rocket 4.4 21:17:59 14° SSE 21:22:27 51° E 21:27:41 10° NNE
Cosmos 1743 3.2 21:18:43 10° NNW 21:22:27 57° W 21:25:38 14° S
ISS -3.5 21:21:13 10° W 21:24:34 69° N 21:27:55 10° E
Cosmos 2263 Rocket 2.6 21:19:34 10° NNW 21:25:05 53° NE 21:29:18 17° SE
BREEZE-M (TANK) 4.3 21:22:43 10° WSW 21:27:14 80° SSE 21:47:31 10° E
Cosmos 2344 3.5 21:22:13 10° SSW 21:29:29 58° ESE 21:37:00 10° NE
Cosmos 1933 Rocket 4.0 21:26:05 10° NNW 21:30:30 60° W 21:34:14 14° S
SL-4 R/B 2.4 21:27:07 10° WNW 21:31:32 51° SSW 21:34:00 22° SE
Terra 1.8 21:29:55 18° SSE 21:33:30 85° WSW 21:38:18 10° NNW
Cosmos 2227 Rocket 3.2 21:28:34 10° NW 21:33:49 40° WSW 21:38:31 13° S
Resurs 01 Rocket 4.1 21:31:16 10° SW 21:34:12 17° W 21:37:08 10° NW
Cosmos 1975 3.5 21:31:07 10° N 21:35:02 43° ENE 21:37:13 23° SE
SWAS 4.4 21:31:03 10° NNW 21:35:23 82° ENE 21:38:01 23° SE
Meteor 2-4 Rocket 4.3 21:37:43 20° SSE 21:41:20 42° E 21:46:40 10° NNE
Cosmos 1733 Rocket 4.1 21:37:16 10° N 21:41:22 34° ENE 21:43:44 20° ESE
Cosmos 1340 3.3 21:38:19 10° SSW 21:41:59 53° WNW 21:45:40 10° N
Meteor 2-21 4.5 21:37:54 10° NNW 21:44:01 82° W 21:48:44 18° S
Cosmos 2369 3.7 21:40:44 10° SSW 21:46:20 70° ESE 21:51:58 10° NNE
Cosmos 783 Rocket 4.5 21:43:07 10° NNW 21:48:22 89° WSW 21:51:38 23° SSE
Cosmos 1980 Rocket 2.2 21:43:23 11° SSW 21:48:46 64° ESE 21:54:24 10° NE
CZ-2C R/B 4.0 21:47:04 10° N 21:51:49 73° WNW 21:56:25 11° SSW
Cosmos 2322 Rocket 3.8 21:53:11 15° ESE 21:54:28 16° E 21:57:44 10° ENE
Cosmos 1354 Rocket 4.0 21:51:12 14° SSW 21:55:42 73° ESE 22:01:01 10° NNE
Meteor 2-21 Rocket 4.4 21:49:39 10° N 21:55:46 87° WSW 22:00:00 21° S
Cosmos 2360 4.5 21:50:54 10° SW 21:56:34 70° WNW 22:02:17 10° NNE
SJ 16-02 1.3 21:56:08 23° S 21:58:46 64° ESE 22:03:07 10° NNE
Cosmos 2228 Rocket 3.1 21:55:45 21° S 21:58:51 86° ESE 22:03:27 10° N
Meteor 1-18 Rocket 4.2 21:56:11 20° S 22:00:14 70° E 22:05:52 10° NNE
Cosmos 1777 Rocket 4.1 22:01:35 23° S 22:04:43 56° ESE 22:09:52 10° NNE
SAR-Lupe-4 3.5 22:01:49 10° NNE 22:05:27 82° ESE 22:07:08 30° S
Cosmos 1844 Rocket 4.1 22:01:43 10° NNW 22:06:40 30° NE 22:11:24 11° ESE
USA 81 4.1 22:03:54 25° S 22:07:02 69° E 22:12:18 10° N
CZ-4C R/B 4.4 22:01:51 10° NW 22:07:28 31° NNE 22:14:08 10° E
USA 215 3.4 22:02:12 10° ENE 22:08:33 49° SE 22:14:52 10° SSW
Cosmos 2227 4.3 22:03:07 10° NNW 22:08:53 73° ENE 22:12:24 25° SE
Iridium 2 4.2 22:06:00 10° N 22:09:36 43° E 22:10:50 32° SE
Cosmos 1697 Rocket 3.4 22:04:31 10° SW 22:10:05 54° NW 22:15:40 10° NNE
Cosmos 2297 Rocket 4.4 22:07:48 10° WNW 22:10:49 15° W 22:13:49 10° SW
Cosmos 1092 Rocket 4.1 22:05:03 10° NNW 22:11:15 73° W 22:15:25 22° S
Cosmos 773 Rocket 4.3 22:08:55 10° NNW 22:14:04 57° WSW 22:16:57 25° S
Meteor 1-4 Rocket 3.6 22:12:15 10° N 22:15:23 31° ENE 22:16:23 26° ESE
ARIANE 5 R/B 3.6 22:13:52 19° SSW 22:16:35 40° W 22:20:53 10° NNW
Cosmos 1726 4.1 22:15:39 10° NNE 22:18:16 18° ENE 22:19:37 15° E
Cosmos 1634 Rocket 3.9 22:14:35 21° S 22:18:56 85° E 22:25:10 10° N
Iridium 4 Rocket 4.1 22:24:48 10° NNE 22:28:50 35° E 22:30:35 26° ESE
SL-16 R/B 2.8 22:27:38 29° SSE 22:29:44 39° ESE 22:34:58 10° NE
Cosmos 1733 3.6 22:28:34 10° N 22:32:17 51° ENE 22:33:22 38° SE
Cosmos 44 Rocket 3.1 22:28:50 10° NW 22:33:35 84° SW 22:35:37 34° SSE
ATLAS CENTAUR R/B 3.7 22:29:25 10° NNW 22:33:36 27° NNE 22:37:42 10° E
Cosmos 1378 3.8 22:34:16 25° SW 22:36:07 48° WNW 22:39:41 10° N
ATLAS 2AS CENTAUR R/B 2.9 22:28:24 10° SSW 22:36:10 74° SE 22:43:41 10° NE
Cosmos 1346 Rocket 2.7 22:35:44 36° SSW 22:37:18 86° W 22:41:22 10° NNE
Cosmos 1538 Rocket 4.0 22:32:34 10° NNW 22:37:52 82° WSW 22:40:18 33° SSE
RESURS DK-1 2.2 22:36:47 30° SSW 22:38:43 85° ESE 22:42:53 10° NNE
NOSS 3-4 (A) 4.3 22:35:12 10° WSW 22:40:50 49° NW 22:47:05 10° NE
NOSS 3-4 (C) 4.3 22:35:15 10° WSW 22:40:55 50° NW 22:47:10 10° NE
ADEOS Rocket 3.7 22:40:52 20° ESE 22:44:15 42° ENE 22:49:45 10° N
USA 267 3.2 22:40:37 19° SE 22:45:34 81° SSW 22:52:09 10° WNW
Cosmos 2278 3.8 22:42:30 16° SSW 22:47:05 79° WNW 22:52:49 10° NNE
Cosmos 1707 Rocket 4.1 22:46:00 25° SW 22:48:25 56° WNW 22:52:48 10° N
SL-24 R/B - RUBIN 2 3.6 22:49:31 10° NW 22:53:51 62° SW 22:55:13 41° S
Okean 1-7 3.6 22:54:08 35° SE 22:55:19 44° E 22:59:30 10° NNE
Cosmos 923 Rocket 4.2 22:51:10 10° NNW 22:56:30 69° ENE 22:59:07 31° SE
ISS -3.4 22:58:02 10° WNW 23:00:55 49° SW 23:00:55 49° SW
Cosmos 1703 Rocket 4.1 23:00:19 37° SE 23:01:34 47° E 23:05:51 10° NNE
Cosmos 2360 Rocket 3.1 23:00:23 28° SE 23:01:58 33° ESE 23:06:57 10° NE
Cosmos 1818 4.3 22:59:31 10° NW 23:04:53 51° NE 23:09:12 15° ESE
Cosmos 1842 4.4 23:06:04 27° ESE 23:06:41 29° E 23:10:04 10° NNE
Cosmos 2263 Rocket 3.3 23:03:56 10° NW 23:08:45 30° WSW 23:10:59 23° SW
SL-4 R/B 4.3 23:08:03 10° WSW 23:09:26 13° WSW 23:09:26 13° WSW
Cosmos 2242 Rocket 4.2 23:09:15 35° SE 23:10:34 46° E 23:14:56 10° NNE
Cosmos 1441 Rocket 3.2 23:09:48 45° SW 23:10:46 68° WNW 23:14:31 10° N
Terra 4.2 23:10:04 10° WSW 23:11:59 12° W 23:13:56 10° WNW
ATLAS 3B R/B 2.9 23:04:46 10° NW 23:12:04 71° SW 23:16:23 28° SSE
Spot 4 4.1 23:11:37 36° SSW 23:13:25 58° WSW 23:18:11 10° NNW
Cosmos 1782 Rocket 3.8 23:09:55 10° N 23:14:13 58° ENE 23:15:37 38° SE
Cosmos 1937 Rocket 4.4 23:13:31 29° SE 23:14:57 34° ESE 23:19:41 10° NE
NOSS 2-1 (E) 2.8 23:15:19 60° ESE 23:15:19 60° ESE 23:18:22 10° NE
Cosmos 1066 Rocket 4.3 23:12:30 30° SSW 23:15:30 82° WNW 23:21:15 10° N
ALOS 2 2.5 23:15:18 44° S 23:16:40 81° WSW 23:21:06 10° NNW
Cosmos 2112 Rocket 4.2 23:11:55 10° NNW 23:17:16 68° ENE 23:19:52 30° SE
Iridium 51 4.2 23:16:57 50° SW 23:17:32 60° W 23:20:59 10° N
Cosmos 2266 Rocket 4.0 23:11:15 10° N 23:17:35 84° W 23:20:37 33° S
Cosmos 1680 Rocket 3.5 23:14:41 10° NNW 23:20:02 80° ENE 23:22:24 34° SSE
Cosmos 1908 Rocket 3.7 23:21:35 10° NNW 23:25:52 61° W 23:27:06 42° SSW
Okean 3 3.4 23:26:58 48° SSE 23:27:59 71° E 23:32:14 10° NNE
Cosmos 2333 Rocket 3.2 23:26:56 26° SE 23:28:32 31° ESE 23:33:26 10° NE
Cosmos 1805 4.2 23:26:14 10° NNW 23:29:50 36° W 23:30:41 32° WSW
ERS-2 2.0 23:28:26 10° NNE 23:32:04 81° WNW 23:32:44 57° SSW
Cosmos 1980 Rocket 3.9 23:28:18 10° WSW 23:33:13 30° NW 23:38:12 10° NNE
MINOTAUR IV R/B 4.5 23:33:53 43° SSW 23:35:18 84° ESE 23:39:50 10° NNE
Meteor 2-10 4.4 23:30:07 10° NNW 23:35:21 54° W 23:37:21 34° SSW
H-2A R/B 3.8 23:32:36 10° N 23:36:37 58° WNW 23:38:02 36° SW
Cosmos 1898 Rocket 3.6 23:35:22 38° S 23:37:22 68° ESE 23:42:41 10° NNE
Cosmos 1766 3.5 23:33:45 10° NNW 23:37:36 55° W 23:38:21 46° SW
Cosmos 2322 Rocket 2.1 23:34:57 32° SSW 23:37:41 87° ESE 23:43:20 10° NNE
SJ 16-02 3.7 23:34:34 10° W 23:37:46 19° NW 23:40:58 10° N
Cosmos 1300 Rocket 3.9 23:34:28 10° N 23:38:45 56° ENE 23:40:11 37° SE
Cosmos 990 Rocket 4.0 23:37:50 33° SSW 23:40:16 82° WNW 23:45:33 10° NNE
Sich 1 Rocket 4.5 23:36:06 10° N 23:40:16 41° ENE 23:42:02 28° ESE
Cosmos 1356 4.5 23:42:57 31° W 23:43:36 34° WNW 23:46:40 10° N
Meteor 1-15 Rocket 4.4 23:38:07 10° NNW 23:43:40 63° W 23:46:02 35° SSW
Cosmos 1461 4.4 23:44:53 10° NNW 23:48:41 35° NE 23:52:36 10° ESE
Meteor 1-4 Rocket 4.3 23:47:31 10° NW 23:50:02 19° W 23:50:22 19° W
Cosmos 1844 Rocket 2.8 23:45:26 10° NW 23:50:57 61° WSW 23:53:02 37° S
NOSS 2-1 (C) 3.5 23:50:44 35° W 23:51:45 51° NW 23:55:02 10° NE
USA 215 3.5 23:45:15 10° ENE 23:51:47 74° NNW 23:58:20 10° WSW
NOSS 2-1 (D) 3.6 23:52:23 33° W 23:53:26 48° NW 23:56:42 10° NE
Cosmos 1726 2.8 23:50:01 10° NNW 23:53:27 39° W 23:53:54 38° WSW
